N4YHC Weather Reports


Display with metric or nautical units.
time (UTC)temp
F
wind
direction
speed
MPH
gust
MPH
rain 1hr
in
rain 24hr
in
rain mn
in
humidity
%
barometer
mb
20260507145419 53 232 1.0 6.0 0.00 0.00 0.00 49 1014.6
20260507143931 53 228 4.0 8.0 0.00 0.00 0.00 48 1014.7
20260507143505 53 235 6.0 8.0 0.00 0.00 0.00 51 1014.7
20260507142937 52 260 4.0 7.0 0.00 0.00 0.00 51 1014.8
20260507142410 52 291 4.0 7.0 0.00 0.00 0.00 55 1014.8
20260507141942 52 24 4.0 7.0 0.00 0.00 0.00 50 1014.7
20260507141415 51 21 5.0 7.0 0.00 0.00 0.00 51 1014.8
20260507140949 51 303 3.0 7.0 0.00 0.00 0.00 51 1014.8
20260507135439 51 351 3.0 6.0 0.00 0.00 0.00 52 1014.9
20260507134912 51 292 2.0 5.0 0.00 0.00 0.00 52 1014.8
20260507134446 51 48 2.0 3.0 0.00 0.00 0.00 54 1014.7
20260507133919 50 291 1.0 4.0 0.00 0.00 0.00 58 1014.7
20260507132929 50 325 1.0 5.0 0.00 0.00 0.00 58 1014.8
20260507131925 49 349 2.0 4.0 0.00 0.00 0.00 59 1014.8
20260507131458 49 281 2.0 9.0 0.00 0.00 0.00 60 1014.9
20260507130932 49 344 2.0 9.0 0.00 0.00 0.00 61 1014.7
20260507130505 48 302 0.0 4.0 0.00 0.00 0.00 63 1014.7
20260507125915 48 328 2.0 4.0 0.00 0.00 0.00 68 1014.7
20260507124908 48 291 1.0 4.0 0.00 0.00 0.00 64 1014.6
20260507124442 48 14 4.0 6.0 0.00 0.00 0.00 64 1014.7
20260507123915 47 291 0.0 6.0 0.00 0.00 0.00 67 1014.8
20260507123449 47 351 2.0 3.0 0.00 0.00 0.00 68 1014.8
20260507122922 47 36 2.0 3.0 0.00 0.00 0.00 70 1014.8
20260507122456 46 291 2.0 3.0 0.00 0.00 0.00 71 1014.9
20260507121928 46 320 0.0 3.0 0.00 0.00 0.00 73 1014.8
20260507120925 44 294 1.0 4.0 0.00 0.00 0.00 75 1014.8
20260507120459 44 294 0.0 4.0 0.00 0.00 0.00 76 1014.8
20260507115928 44 293 1.0 3.0 0.00 0.00 0.00 77 1014.7
20260507114456 43 332 0.0 1.0 0.00 0.00 0.00 80 1014.8
20260507113929 42 330 0.0 1.0 0.00 0.00 0.00 81 1014.7
20260507112925 42 329 0.0 2.0 0.00 0.00 0.00 83 1014.8
20260507112459 41 343 0.0 1.0 0.00 0.00 0.00 84 1014.7
20260507111931 41 343 0.0 2.0 0.00 0.00 0.00 84 1014.5
20260507111506 41 343 0.0 2.0 0.00 0.00 0.00 85 1014.5
20260507110935 41 343 0.0 1.0 0.00 0.00 0.00 85 1014.5
20260507110408 41 343 0.0 0.0 0.00 0.00 0.00 85 1014.4
20260507105918 41 343 0.0 0.0 0.00 0.00 0.00 85 1014.3
20260507105452 41 343 0.0 0.0 0.00 0.00 0.00 85 1014.2
20260507104908 42 343 0.0 0.0 0.00 0.00 0.00 84 1014.1
20260507104443 42 343 0.0 0.0 0.00 0.00 0.00 84 1013.9
20260507103915 42 343 0.0 1.0 0.00 0.00 0.00 84 1013.9
20260507103449 42 343 0.0 1.0 0.00 0.00 0.00 84 1013.9
20260507102922 42 343 0.0 2.0 0.00 0.00 0.00 83 1014.0
20260507102455 42 343 0.0 2.0 0.00 0.00 0.00 83 1014.0
20260507101928 43 343 0.0 0.0 0.00 0.00 0.00 83 1014.0
20260507100440 43 343 0.0 2.0 0.00 0.00 0.00 82 1014.1
20260507095952 43 343 1.0 2.0 0.00 0.00 0.00 82 1014.1
20260507095425 43 343 0.0 1.0 0.00 0.00 0.00 81 1014.1
20260507092942 44 343 0.0 2.0 0.00 0.00 0.00 80 1014.0
20260507091939 44 349 0.0 2.0 0.00 0.00 0.00 81 1013.9
20260507091412 44 349 0.0 3.0 0.00 0.00 0.00 82 1013.8
20260507090946 44 350 2.0 4.0 0.00 0.00 0.00 84 1013.7
20260507090419 43 16 1.0 4.0 0.00 0.00 0.00 84 1013.8
20260507084930 44 306 0.0 0.0 0.00 0.00 0.00 85 1013.8
20260507083455 44 306 0.0 0.0 0.00 0.00 0.00 85 1013.7
20260507082505 44 306 0.0 0.0 0.00 0.00 0.00 85 1013.4
20260507081454 45 306 0.0 0.0 0.00 0.00 0.00 84 1013.4
20260507080912 45 306 0.0 0.0 0.00 0.00 0.00 84 1013.4
20260507080445 45 306 0.0 0.0 0.00 0.00 0.00 84 1013.4
20260507075957 45 306 0.0 0.0 0.00 0.00 0.00 84 1013.4
20260507075430 45 306 0.0 0.0 0.00 0.00 0.00 84 1013.4
20260507074420 45 306 0.0 1.0 0.00 0.00 0.00 83 1013.3
20260507073429 45 306 0.0 1.0 0.00 0.00 0.00 83 1013.3
20260507073003 45 306 0.0 1.0 0.00 0.00 0.00 83 1013.3
20260507072419 46 306 0.0 0.0 0.00 0.00 0.00 83 1013.3
20260507071953 46 306 0.0 0.0 0.00 0.00 0.00 83 1013.4
20260507071426 46 306 0.0 1.0 0.00 0.00 0.00 83 1013.5
20260507071000 46 306 0.0 1.0 0.00 0.00 0.00 83 1013.5
20260507070432 46 306 0.0 0.0 0.00 0.00 0.00 83 1013.5
20260507065943 46 306 0.0 2.0 0.00 0.00 0.00 84 1013.5
20260507065416 46 306 1.0 2.0 0.00 0.00 0.00 84 1013.5
20260507063927 45 306 0.0 1.0 0.00 0.00 0.00 87 1013.5
20260507062940 45 306 0.0 0.0 0.00 0.00 0.00 88 1013.5
20260507062411 45 306 0.0 0.0 0.00 0.00 0.00 89 1013.7
20260507061945 45 306 0.0 0.0 0.00 0.00 0.00 89 1013.7
20260507060436 45 306 0.0 0.0 0.00 0.00 0.00 89 1013.5
20260507055913 45 306 0.0 0.0 0.00 0.00 0.00 89 1013.6
20260507055420 45 306 0.0 0.0 0.00 0.00 0.00 89 1013.5
20260507054908 45 306 0.0 0.0 0.00 0.00 0.00 89 1013.5
20260507054416 45 306 0.0 0.0 0.00 0.00 0.00 89 1013.6
20260507053923 45 306 0.0 0.0 0.00 0.00 0.00 89 1013.6
20260507053411 45 306 0.0 0.0 0.00 0.00 0.00 89 1013.7
20260507052919 45 306 0.0 0.0 0.00 0.00 0.00 89 1013.7
20260507052426 45 306 0.0 0.0 0.00 0.00 0.00 89 1013.6
20260507050917 45 306 0.0 0.0 0.00 0.00 0.00 88 1013.6
20260507050425 45 306 0.0 0.0 0.00 0.00 0.00 88 1013.5
20260507045910 45 306 0.0 0.0 0.00 0.00 0.00 88 1013.7
20260507045417 46 306 0.0 0.0 0.00 0.00 0.00 87 1013.8
20260507043926 46 306 0.0 0.0 0.00 0.00 0.00 86 1013.8
20260507043413 46 306 0.0 0.0 0.00 0.00 0.00 85 1013.8
20260507042921 47 306 0.0 0.0 0.00 0.00 0.00 85 1013.9
20260507041923 47 306 0.0 0.0 0.00 0.00 0.00 83 1013.7
20260507041411 48 306 0.0 0.0 0.00 0.00 0.00 82 1013.7
20260507040919 48 306 0.0 0.0 0.00 0.00 0.00 81 1013.9
20260507040426 48 306 0.0 0.0 0.00 0.00 0.00 81 1013.9
20260507035951 48 306 0.0 0.0 0.00 0.00 0.49 79 1013.9
20260507033925 48 306 0.0 1.0 0.00 0.00 0.49 82 1013.6
20260507033459 47 306 0.0 0.0 0.00 0.00 0.49 83 1013.6
20260507032913 47 306 0.0 0.0 0.00 0.00 0.49 83 1013.7
20260507032445 48 306 0.0 0.0 0.00 0.00 0.49 82 1013.8
20260507031916 48 306 0.0 0.0 0.00 0.00 0.49 82 1013.7
20260507031449 48 306 0.0 0.0 0.00 0.00 0.49 81 1013.8
20260507030920 48 306 0.0 0.0 0.00 0.00 0.49 80 1013.7
20260507030445 48 306 0.0 0.0 0.00 0.60 0.49 80 1013.8
20260507025444 49 306 0.0 0.0 0.00 0.60 0.49 80 1013.8
20260507024934 49 306 0.0 0.0 0.00 0.60 0.49 80 1013.7
20260507023935 49 306 0.0 0.0 0.00 0.60 0.49 79 1013.8
20260507022932 50 306 0.0 0.0 0.00 0.60 0.49 77 1013.6
20260507020952 51 306 0.0 0.0 0.00 0.73 0.49 74 1013.4
20260507020424 51 306 0.0 0.0 0.00 0.73 0.49 74 1013.4
20260507015934 51 306 0.0 0.0 0.00 0.73 0.49 73 1013.3
20260507015407 51 306 0.0 0.0 0.00 0.73 0.49 73 1013.4
20260507014941 51 306 0.0 0.0 0.00 0.73 0.49 73 1013.4
20260507013938 52 306 0.0 0.0 0.00 0.73 0.49 73 1013.3
20260507013411 52 306 0.0 0.0 0.00 0.73 0.49 74 1013.2
20260507011455 53 306 0.0 0.0 0.00 0.73 0.49 69 1013.0
20260507010928 54 306 0.0 0.0 0.00 0.75 0.49 67 1013.0
20260507005955 54 306 0.0 0.0 0.00 0.75 0.49 66 1012.8
20260507004948 55 306 0.0 0.0 0.00 0.75 0.49 64 1012.9
20260507003956 55 306 0.0 1.0 0.00 0.75 0.49 62 1012.8
20260507003426 56 306 1.0 3.0 0.00 0.75 0.49 60 1012.9
20260507002957 56 306 1.0 3.0 0.00 0.75 0.49 61 1012.8
20260507002428 56 302 1.0 3.0 0.00 0.75 0.49 59 1012.9
20260507001422 57 307 1.0 3.0 0.00 0.75 0.49 59 1012.6
20260507000953 57 308 1.0 5.0 0.00 0.77 0.49 59 1012.6
20260507000424 57 289 0.0 5.0 0.00 0.77 0.49 59 1012.6
20260506235953 57 264 2.0 6.0 0.00 0.77 0.49 60 1012.5
20260506235425 57 288 3.0 6.0 0.00 0.77 0.49 59 1012.5
20260506234956 57 12 1.0 4.0 0.00 0.77 0.49 58 1012.6
20260506234428 58 291 1.0 3.0 0.00 0.77 0.49 57 1012.4
20260506234000 58 291 2.0 4.0 0.00 0.77 0.49 58 1012.3
20260506233415 58 349 2.0 4.0 0.00 0.77 0.49 58 1012.3
20260506232947 58 346 1.0 5.0 0.00 0.77 0.49 58 1012.2
20260506232417 58 296 2.0 5.0 0.00 0.77 0.49 57 1012.1
20260506231949 58 303 1.0 4.0 0.00 0.77 0.49 58 1012.2
20260506230933 58 287 4.0 5.0 0.00 0.80 0.49 56 1011.9
20260506230504 58 260 2.0 5.0 0.00 0.80 0.49 57 1011.8
20260506225436 58 284 2.0 6.0 0.00 0.80 0.49 56 1011.9
20260506224446 58 289 3.0 4.0 0.00 0.80 0.49 56 1012.0
20260506223918 58 303 2.0 4.0 0.00 0.80 0.49 56 1012.0
20260506220930 58 294 2.0 3.0 0.00 0.81 0.49 54 1012.1
20260506220502 58 295 0.0 3.0 0.00 0.81 0.49 53 1012.1
20260506215002 59 261 2.0 5.0 0.00 0.81 0.49 53 1012.4
20260506214433 59 235 4.0 7.0 0.00 0.81 0.49 51 1012.4
20260506214005 59 320 1.0 7.0 0.00 0.81 0.49 52 1012.4
20260506213437 60 336 2.0 5.0 0.00 0.81 0.49 52 1012.3
20260506211942 59 297 1.0 3.0 0.00 0.81 0.49 53 1012.1
20260506211413 59 15 3.0 5.0 0.00 0.81 0.49 51 1012.1
20260506210946 60 291 3.0 5.0 0.00 0.92 0.49 50 1012.2
20260506210417 60 272 2.0 4.0 0.00 0.92 0.49 54 1012.1
20260506204938 60 327 2.0 5.0 0.00 0.92 0.49 51 1011.9
20260506203934 59 294 4.0 7.0 0.00 0.92 0.49 54 1011.7
20260506203406 59 31 5.0 7.0 0.00 0.92 0.49 52 1011.8
20260506202940 60 284 3.0 4.0 0.00 0.92 0.49 54 1011.9
20260506202413 60 293 3.0 4.0 0.00 0.92 0.49 57 1011.9
20260506201947 60 225 2.0 3.0 0.00 0.92 0.49 56 1011.9
20260506200451 60 298 2.0 4.0 0.00 1.35 0.49 54 1012.0
20260506195945 60 285 3.0 4.0 0.00 1.35 0.49 55 1012.0
20260506195417 60 228 2.0 7.0 0.00 1.35 0.49 54 1012.1
20260506194951 60 278 4.0 7.0 0.00 1.35 0.49 53 1011.9
20260506194424 60 288 2.0 5.0 0.00 1.35 0.49 53 1012.1
20260506193958 60 219 3.0 5.0 0.00 1.35 0.49 52 1012.0
20260506193431 60 56 2.0 5.0 0.00 1.35 0.49 53 1011.8
20260506192427 60 298 2.0 5.0 0.00 1.35 0.49 55 1012.1
20260506192001 61 245 2.0 11.0 0.00 1.35 0.49 57 1011.8
20260506190946 60 292 0.0 4.0 0.00 1.35 0.49 56 1011.5
20260506190419 61 6 3.0 5.0 0.00 1.35 0.49 59 1011.5
20260506185426 60 289 3.0 5.0 0.00 1.35 0.49 58 1011.6
20260506184959 60 241 3.0 5.0 0.00 1.35 0.49 55 1011.7
20260506184416 60 291 2.0 4.0 0.00 1.35 0.49 57 1011.7
20260506183506 59 6 6.0 7.0 0.00 1.35 0.49 54 1011.8
20260506182414 59 31 1.0 4.0 0.00 1.35 0.49 55 1011.7
20260506181948 59 126 2.0 5.0 0.00 1.35 0.49 58 1011.6
20260506181421 59 6 3.0 9.0 0.00 1.35 0.49 60 1011.5
20260506180954 59 292 3.0 9.0 0.00 1.35 0.49 61 1011.7
20260506175925 59 270 3.0 4.0 0.00 1.35 0.49 61 1011.6
20260506175459 58 2 2.0 4.0 0.00 1.35 0.49 63 1011.8
20260506174932 58 33 3.0 4.0 0.00 1.35 0.49 59 1012.0
20260506174506 58 10 3.0 4.0 0.00 1.35 0.49 62 1012.0
20260506173939 58 16 2.0 10.0 0.00 1.35 0.49 58 1012.0
20260506172927 58 53 2.0 5.0 0.00 1.35 0.49 63 1012.0
20260506171923 57 60 6.0 9.0 0.00 1.35 0.49 62 1012.1
20260506171456 57 359 3.0 6.0 0.00 1.35 0.49 64 1012.2
20260506170930 56 304 4.0 5.0 0.00 1.35 0.49 68 1012.1
20260506170503 56 47 3.0 4.0 0.00 1.35 0.49 66 1012.1
20260506165913 56 287 3.0 5.0 0.00 1.35 0.49 67 1012.3
20260506165447 56 3 1.0 5.0 0.00 1.35 0.49 66 1012.4
20260506164920 55 29 1.0 9.0 0.00 1.35 0.49 63 1012.4
20260506164454 55 22 3.0 9.0 0.00 1.35 0.49 64 1012.5
20260506163911 55 296 4.0 7.0 0.00 1.35 0.49 67 1012.4
20260506163445 54 16 1.0 6.0 0.00 1.35 0.49 66 1012.3
20260506162917 55 47 4.0 6.0 0.00 1.35 0.49 64 1012.5
20260506162451 55 337 2.0 4.0 0.00 1.35 0.49 66 1012.3
20260506161924 54 341 2.0 8.0 0.00 1.35 0.49 66 1012.4
20260506160912 54 288 5.0 9.0 0.00 1.35 0.49 70 1012.2
20260506160446 54 20 7.0 9.0 0.00 1.35 0.49 69 1012.2
20260506155941 54 6 3.0 7.0 0.00 1.35 0.49 72 1012.1
20260506155414 54 277 3.0 8.0 0.00 1.35 0.49 71 1012.1
20260506154948 54 1 5.0 8.0 0.00 1.35 0.49 70 1012.2
20260506154421 54 266 5.0 7.0 0.00 1.35 0.49 70 1012.2
20260506153954 54 272 3.0 6.0 0.00 1.35 0.49 73 1012.0
20260506153427 53 38 2.0 7.0 0.00 1.35 0.49 72 1012.0
20260506152002 53 293 3.0 11.0 0.00 1.35 0.49 72 1012.0
20260506151435 53 231 3.0 11.0 0.00 1.35 0.49 73 1012.1
20260506150444 53 338 2.0 4.0 0.00 1.35 0.49 74 1011.8